FENGYUN 1C DEB

Satellite information

Favourite Embed

Satellite Type and Status

DEBRISIN ORBIT

Key statistics

Satellite FENGYUN 1C DEB at a glance.

Uptime

9714

Days in orbit

Revolutions

≈ 14.5

Per day

Orbit

SSO

Sun Synchronous Orbit

Inclination

99.6

Latest

Satellite identification and parameters

Extended collection of information and parameters for FENGYUN 1C DEB.

Object identification

Identified? True

Debris? True

Object name: FENGYUN 1C DEB

International designator: 1999-025DGA

Object number (NORAD): 33689

Object ID (CCSDS): 33689

Country: PEOPLES REPUBLIC OF CHINA (PRC)

Current information (Y/N): Y

RCS size: SMALL

Orbital parameters

Period: 99.648 minutes

Inclination: 99.5648 deg

SMA: 7119.888 km

Apoapsis: 775.938 km

Periapsis: 707.568 km

RAAN: 347.8823 deg

Eccentricy: 0.00480135

Argument of periapsis: 167.5369 deg

Mean anomaly: 254.9476 deg

Mean motion: 14.45083851 rev/day

Mean motion (dot): 0.00006046 rev/day2

B* drag term: 0.0017194976 1/REarth

Two-line elements (TLE)

Creation date: Dec. 7, 2025, 5:20 p.m.

Reference frame: TEME

Reference center: EARTH

Epoch: Dec. 7, 2025, 5:58 a.m. UTC

TLE line 0: 0 FENGYUN 1C DEB

TLE line 1: 1 33689U 99025DGA 25341.24883194 .00006046 00000-0 17195-2 0 9999

TLE line 2: 2 33689 99.5648 347.8823 0048014 167.5369 254.9476 14.45083851694512

Live tracking on map

Real-time ground track for satellite FENGYUN 1C DEB.

In-orbit conjunctions

A list of the most updated potential collisions computed for object FENGYUN 1C DEB.

Target Orbit TCA Probability of collision Miss distance Type
IRIDIUM 33 DEB LEO 2025-10-24 09:57:28 0.0002364526 65.0 (m) DEBRIS
SL-18 R/B LEO 2025-04-10 09:13:59 0.0001065472 208.0 (m) ROCKET BODY

Associated space launch

Chinese polar orbiting meteorological satellite

FENGYUN 1C DEB was lifted into orbit during the mission ‘Long March 4B | Feng Yun 1C’, on board a Long March 4B space rocket.

The launch took place on May 10, 1999, 1:33 a.m. from Launch Complex 7.

For more information about the launch, click the button.

Launch to space Long March 4B | Feng Yun 1C
Long March 4B | Feng Yun 1C

Agency: N/A

Status: Launch Successful

Launch date: May 10, 1999, 1:33 a.m. UTC

Rocket: Long March 4B

Launch pad: Launch Complex 7

Location: Taiyuan Satellite Launch Center, People's Republic of China

...

Latest news about this satellite

There are no fresh news available about this satellite. Check back as we update our databases every day.


Newsletter sign-up

Weekly statistics, charts and insights to help you stay on top of the space industry.